| time (UTC) | temp F | wind direction | speed MPH | gust MPH | rain 1hr in | rain 24hr in | rain mn in | humidity % | barometer mb |
| 20260506174813 | 55 | 74 | 6.0 | 11.0 | 0.00 | 0.00 | 0.00 | 62 | 1010.5 |
| 20260506174335 | 56 | 27 | 7.0 | 12.0 | 0.00 | 0.00 | 0.00 | 62 | 1010.5 |
| 20260506173821 | 56 | 84 | 3.0 | 11.0 | 0.00 | 0.00 | 0.00 | 63 | 1010.4 |
| 20260506173323 | 56 | 50 | 6.0 | 11.0 | 0.00 | 0.00 | 0.00 | 62 | 1010.3 |
| 20260506172315 | 56 | 39 | 7.0 | 11.0 | 0.00 | 0.00 | 0.00 | 62 | 1010.2 |
| 20260506171818 | 56 | 335 | 7.0 | 11.0 | 0.00 | 0.00 | 0.00 | 61 | 1010.1 |
| 20260506171314 | 57 | 75 | 4.0 | 11.0 | 0.00 | 0.00 | 0.00 | 61 | 1010.0 |
| 20260506170847 | 57 | 59 | 7.0 | 11.0 | 0.00 | 0.00 | 0.00 | 60 | 1010.0 |
| 20260506170328 | 57 | 53 | 3.0 | 13.0 | 0.00 | 0.00 | 0.00 | 60 | 1010.0 |
| 20260506165839 | 57 | 27 | 7.0 | 13.0 | 0.00 | 0.00 | 0.00 | 59 | 1010.0 |
| 20260506165352 | 57 | 34 | 6.0 | 12.0 | 0.00 | 0.00 | 0.00 | 60 | 1009.9 |
| 20260506164827 | 57 | 44 | 4.0 | 11.0 | 0.00 | 0.00 | 0.00 | 61 | 1009.9 |
| 20260506164322 | 57 | 318 | 6.0 | 12.0 | 0.00 | 0.00 | 0.00 | 61 | 1009.9 |
| 20260506163816 | 57 | 348 | 7.0 | 12.0 | 0.00 | 0.00 | 0.00 | 61 | 1009.9 |
| 20260506163338 | 57 | 21 | 5.0 | 13.0 | 0.00 | 0.00 | 0.00 | 62 | 1009.8 |
| 20260506162814 | 57 | 30 | 6.0 | 13.0 | 0.00 | 0.00 | 0.00 | 61 | 1009.8 |
| 20260506162321 | 57 | 33 | 6.0 | 12.0 | 0.00 | 0.00 | 0.00 | 61 | 1009.8 |
| 20260506161823 | 58 | 25 | 2.0 | 8.0 | 0.00 | 0.00 | 0.00 | 63 | 1009.8 |
| 20260506161346 | 58 | 33 | 5.0 | 8.0 | 0.00 | 0.00 | 0.00 | 63 | 1009.6 |
| 20260506160839 | 58 | 45 | 4.0 | 9.0 | 0.00 | 0.00 | 0.00 | 64 | 1009.7 |
| 20260506160312 | 58 | 316 | 4.0 | 10.0 | 0.00 | 0.00 | 0.00 | 64 | 1009.6 |
| 20260506155816 | 58 | 335 | 5.0 | 10.0 | 0.00 | 0.00 | 0.00 | 63 | 1009.6 |
| 20260506155331 | 58 | 27 | 4.0 | 9.0 | 0.00 | 0.00 | 0.00 | 63 | 1009.6 |
| 20260506154833 | 58 | 24 | 4.0 | 9.0 | 0.00 | 0.00 | 0.00 | 63 | 1009.6 |
| 20260506154328 | 59 | 41 | 6.0 | 11.0 | 0.00 | 0.00 | 0.00 | 62 | 1009.6 |
| 20260506153813 | 59 | 111 | 3.0 | 10.0 | 0.00 | 0.00 | 0.00 | 63 | 1009.6 |
| 20260506153316 | 59 | 11 | 3.0 | 8.0 | 0.00 | 0.00 | 0.00 | 62 | 1009.6 |
| 20260506152829 | 59 | 321 | 3.0 | 10.0 | 0.00 | 0.00 | 0.00 | 61 | 1009.6 |
| 20260506152324 | 59 | 341 | 6.0 | 12.0 | 0.00 | 0.00 | 0.00 | 60 | 1009.6 |
| 20260506151829 | 60 | 16 | 7.0 | 11.0 | 0.00 | 0.00 | 0.00 | 61 | 1009.5 |
| 20260506151320 | 59 | 354 | 4.0 | 11.0 | 0.00 | 0.00 | 0.00 | 63 | 1009.5 |
| 20260506150824 | 59 | 61 | 5.0 | 11.0 | 0.00 | 0.00 | 0.00 | 63 | 1009.5 |
| 20260506150319 | 59 | 345 | 4.0 | 11.0 | 0.00 | 0.00 | 0.00 | 64 | 1009.5 |
| 20260506145814 | 58 | 312 | 3.0 | 8.0 | 0.00 | 0.00 | 0.00 | 64 | 1009.5 |
| 20260506145320 | 58 | 268 | 5.0 | 8.0 | 0.00 | 0.00 | 0.00 | 63 | 1009.6 |
| 20260506144823 | 59 | 347 | 3.0 | 7.0 | 0.00 | 0.00 | 0.00 | 63 | 1009.5 |
| 20260506144339 | 59 | 46 | 2.0 | 9.0 | 0.00 | 0.00 | 0.00 | 62 | 1009.5 |
| 20260506143812 | 59 | 47 | 5.0 | 9.0 | 0.00 | 0.00 | 0.00 | 60 | 1009.5 |
| 20260506143335 | 59 | 358 | 5.0 | 10.0 | 0.00 | 0.00 | 0.00 | 59 | 1009.5 |
| 20260506142829 | 59 | 25 | 5.0 | 10.0 | 0.00 | 0.00 | 0.00 | 59 | 1009.5 |
| 20260506142324 | 59 | 1 | 4.0 | 10.0 | 0.00 | 0.00 | 0.00 | 60 | 1009.5 |
| 20260506141817 | 58 | 49 | 5.0 | 10.0 | 0.00 | 0.00 | 0.00 | 60 | 1009.5 |
| 20260506141320 | 58 | 290 | 3.0 | 12.0 | 0.00 | 0.00 | 0.00 | 60 | 1009.5 |
| 20260506140841 | 58 | 33 | 5.0 | 12.0 | 0.00 | 0.00 | 0.00 | 58 | 1009.5 |
| 20260506140334 | 58 | 300 | 6.0 | 11.0 | 0.00 | 0.00 | 0.00 | 61 | 1009.5 |
| 20260506135828 | 58 | 298 | 7.0 | 11.0 | 0.00 | 0.00 | 0.00 | 63 | 1009.6 |
| 20260506135325 | 58 | 78 | 4.0 | 11.0 | 0.00 | 0.00 | 0.00 | 64 | 1009.5 |
| 20260506134817 | 58 | 312 | 5.0 | 11.0 | 0.00 | 0.00 | 0.00 | 65 | 1009.5 |
| 20260506134340 | 58 | 354 | 5.0 | 10.0 | 0.00 | 0.00 | 0.00 | 66 | 1009.5 |
| 20260506133820 | 58 | 319 | 6.0 | 10.0 | 0.00 | 0.00 | 0.00 | 65 | 1009.5 |
| 20260506133312 | 59 | 319 | 2.0 | 10.0 | 0.00 | 0.00 | 0.00 | 65 | 1009.4 |
| 20260506132814 | 59 | 18 | 5.0 | 10.0 | 0.00 | 0.00 | 0.00 | 63 | 1009.5 |
| 20260506131827 | 59 | 79 | 7.0 | 15.0 | 0.00 | 0.00 | 0.00 | 61 | 1009.4 |
| 20260506131330 | 59 | 323 | 8.0 | 15.0 | 0.00 | 0.00 | 0.00 | 62 | 1009.4 |
| 20260506130817 | 59 | 25 | 3.0 | 9.0 | 0.00 | 0.00 | 0.00 | 63 | 1009.3 |
| 20260506130335 | 59 | 40 | 5.0 | 10.0 | 0.00 | 0.00 | 0.00 | 64 | 1009.3 |
| 20260506125848 | 59 | 309 | 4.0 | 11.0 | 0.00 | 0.00 | 0.00 | 64 | 1009.2 |
| 20260506125315 | 59 | 338 | 6.0 | 11.0 | 0.00 | 0.00 | 0.00 | 63 | 1009.2 |
| 20260506124835 | 59 | 283 | 4.0 | 11.0 | 0.00 | 0.00 | 0.00 | 63 | 1009.2 |
| 20260506124348 | 59 | 341 | 6.0 | 12.0 | 0.00 | 0.00 | 0.00 | 63 | 1009.2 |
| 20260506123817 | 59 | 101 | 4.0 | 11.0 | 0.00 | 0.00 | 0.00 | 64 | 1009.2 |
| 20260506123337 | 59 | 338 | 5.0 | 9.0 | 0.00 | 0.00 | 0.00 | 65 | 1009.2 |
| 20260506122859 | 59 | 19 | 3.0 | 9.0 | 0.00 | 0.00 | 0.00 | 65 | 1009.2 |
| 20260506122326 | 58 | 24 | 3.0 | 9.0 | 0.00 | 0.00 | 0.00 | 66 | 1009.1 |
| 20260506121826 | 58 | 305 | 5.0 | 10.0 | 0.00 | 0.00 | 0.00 | 67 | 1009.1 |
| 20260506121320 | 58 | 354 | 5.0 | 10.0 | 0.00 | 0.00 | 0.00 | 67 | 1009.1 |
| 20260506120816 | 58 | 46 | 4.0 | 11.0 | 0.00 | 0.00 | 0.00 | 69 | 1009.2 |
| 20260506120330 | 58 | 11 | 5.0 | 11.0 | 0.00 | 0.00 | 0.00 | 68 | 1009.1 |
| 20260506115836 | 59 | 318 | 6.0 | 13.0 | 0.00 | 0.00 | 0.00 | 67 | 1009.1 |
| 20260506115329 | 59 | 346 | 9.0 | 17.0 | 0.00 | 0.00 | 0.00 | 66 | 1009.0 |
| 20260506114821 | 60 | 85 | 8.0 | 17.0 | 0.00 | 0.00 | 0.00 | 66 | 1009.0 |
| 20260506114323 | 60 | 333 | 6.0 | 20.0 | 0.00 | 0.00 | 0.00 | 67 | 1009.0 |
| 20260506113829 | 60 | 21 | 6.0 | 20.0 | 0.00 | 0.00 | 0.00 | 67 | 1009.0 |
| 20260506113330 | 60 | 300 | 5.0 | 15.0 | 0.00 | 0.00 | 0.00 | 66 | 1009.0 |
| 20260506112826 | 60 | 336 | 7.0 | 14.0 | 0.00 | 0.00 | 0.00 | 67 | 1009.0 |
| 20260506112319 | 59 | 1 | 6.0 | 14.0 | 0.00 | 0.00 | 0.00 | 67 | 1008.9 |
| 20260506111814 | 60 | 11 | 4.0 | 14.0 | 0.00 | 0.00 | 0.00 | 69 | 1008.9 |
| 20260506111336 | 60 | 360 | 7.0 | 14.0 | 0.00 | 0.00 | 0.00 | 67 | 1009.0 |
| 20260506110823 | 59 | 33 | 6.0 | 10.0 | 0.00 | 0.00 | 0.00 | 69 | 1009.0 |
| 20260506110325 | 59 | 30 | 5.0 | 10.0 | 0.00 | 0.00 | 0.00 | 69 | 1009.1 |
| 20260506105826 | 59 | 148 | 4.0 | 12.0 | 0.00 | 0.00 | 0.00 | 69 | 1009.1 |
| 20260506105321 | 58 | 328 | 5.0 | 13.0 | 0.00 | 0.00 | 0.00 | 70 | 1009.1 |
| 20260506104816 | 58 | 305 | 6.0 | 14.0 | 0.00 | 0.00 | 0.00 | 71 | 1009.2 |
| 20260506104337 | 58 | 5 | 6.0 | 14.0 | 0.00 | 0.00 | 0.00 | 71 | 1009.1 |
| 20260506103824 | 58 | 298 | 5.0 | 14.0 | 0.00 | 0.00 | 0.00 | 72 | 1009.1 |
| 20260506103319 | 58 | 338 | 6.0 | 12.0 | 0.00 | 0.00 | 0.00 | 73 | 1009.2 |
| 20260506102819 | 58 | 19 | 6.0 | 12.0 | 0.00 | 0.00 | 0.00 | 74 | 1009.2 |
| 20260506102333 | 58 | 327 | 4.0 | 14.0 | 0.00 | 0.00 | 0.00 | 76 | 1009.1 |
| 20260506101825 | 57 | 38 | 6.0 | 14.0 | 0.00 | 0.00 | 0.00 | 76 | 1009.1 |
| 20260506101327 | 58 | 330 | 7.0 | 13.0 | 0.00 | 0.00 | 0.00 | 77 | 1009.1 |
| 20260506100813 | 57 | 322 | 3.0 | 13.0 | 0.00 | 0.00 | 0.00 | 78 | 1009.1 |
| 20260506100335 | 57 | 82 | 5.0 | 11.0 | 0.00 | 0.00 | 0.00 | 78 | 1009.0 |
| 20260506095818 | 57 | 75 | 6.0 | 11.0 | 0.00 | 0.00 | 0.00 | 79 | 1009.0 |
| 20260506095328 | 57 | 342 | 3.0 | 13.0 | 0.00 | 0.00 | 0.00 | 80 | 1009.0 |
| 20260506094823 | 56 | 267 | 2.0 | 13.0 | 0.00 | 0.00 | 0.00 | 80 | 1009.0 |
| 20260506094321 | 56 | 309 | 8.0 | 11.0 | 0.00 | 0.00 | 0.00 | 81 | 1009.0 |
| 20260506093828 | 56 | 274 | 5.0 | 10.0 | 0.00 | 0.00 | 0.00 | 82 | 1009.0 |
| 20260506093330 | 56 | 336 | 8.0 | 14.0 | 0.00 | 0.00 | 0.00 | 81 | 1009.0 |
| 20260506092821 | 55 | 319 | 6.0 | 14.0 | 0.00 | 0.00 | 0.00 | 82 | 1009.0 |
| 20260506092336 | 55 | 326 | 5.0 | 13.0 | 0.00 | 0.00 | 0.00 | 83 | 1009.0 |
| 20260506091814 | 55 | 103 | 4.0 | 11.0 | 0.00 | 0.00 | 0.00 | 84 | 1008.9 |
| 20260506091351 | 54 | 309 | 5.0 | 11.0 | 0.00 | 0.00 | 0.00 | 86 | 1008.9 |
| 20260506090818 | 54 | 3 | 5.0 | 11.0 | 0.00 | 0.00 | 0.00 | 90 | 1008.9 |
| 20260506090340 | 53 | 333 | 4.0 | 10.0 | 0.00 | 0.00 | 0.00 | 92 | 1008.9 |
| 20260506085852 | 52 | 70 | 4.0 | 8.0 | 0.00 | 0.00 | 0.00 | 92 | 1008.9 |
| 20260506085318 | 52 | 21 | 5.0 | 11.0 | 0.00 | 0.00 | 0.00 | 92 | 1008.9 |
| 20260506084813 | 51 | 324 | 4.0 | 11.0 | 0.00 | 0.00 | 0.00 | 92 | 1008.9 |
| 20260506084315 | 51 | 349 | 4.0 | 9.0 | 0.00 | 0.00 | 0.00 | 92 | 1008.8 |
| 20260506083823 | 51 | 22 | 5.0 | 11.0 | 0.00 | 0.00 | 0.00 | 92 | 1008.8 |
| 20260506083319 | 51 | 5 | 4.0 | 11.0 | 0.00 | 0.00 | 0.00 | 92 | 1008.8 |
| 20260506082840 | 50 | 1 | 5.0 | 11.0 | 0.00 | 0.00 | 0.00 | 92 | 1008.8 |
| 20260506082335 | 50 | 325 | 4.0 | 9.0 | 0.00 | 0.00 | 0.00 | 92 | 1008.8 |
| 20260506081830 | 50 | 346 | 4.0 | 10.0 | 0.00 | 0.00 | 0.00 | 92 | 1008.8 |
| 20260506081332 | 50 | 8 | 5.0 | 11.0 | 0.00 | 0.00 | 0.00 | 92 | 1008.8 |
| 20260506080816 | 50 | 25 | 6.0 | 10.0 | 0.00 | 0.00 | 0.00 | 92 | 1008.7 |
| 20260506080339 | 50 | 341 | 6.0 | 10.0 | 0.00 | 0.00 | 0.00 | 92 | 1008.7 |
| 20260506073352 | 49 | 6 | 4.0 | 9.0 | 0.00 | 0.00 | 0.00 | 92 | 1008.7 |
| 20260506072825 | 49 | 15 | 2.0 | 8.0 | 0.00 | 0.00 | 0.00 | 92 | 1008.7 |
| 20260506072314 | 49 | 296 | 4.0 | 8.0 | 0.00 | 0.00 | 0.00 | 92 | 1008.6 |
| 20260506071835 | 49 | 325 | 5.0 | 8.0 | 0.00 | 0.00 | 0.00 | 92 | 1008.6 |
| 20260506071315 | 49 | 58 | 5.0 | 8.0 | 0.00 | 0.00 | 0.00 | 92 | 1008.6 |
| 20260506070844 | 49 | 51 | 4.0 | 9.0 | 0.00 | 0.00 | 0.00 | 92 | 1008.6 |
| 20260506070337 | 49 | 352 | 3.0 | 8.0 | 0.00 | 0.00 | 0.00 | 92 | 1008.7 |
| 20260506062322 | 0 | 0.0 | 0.0 | 0.00 | 0.00 | 0.00 | 1008.5 | ||
| 20260506061826 | 0 | 0.0 | 0.0 | 0.00 | 0.00 | 0.00 | 1008.5 | ||
| 20260506061317 | 0 | 0.0 | 0.0 | 0.00 | 0.00 | 0.00 | 1008.4 | ||
| 20260506060843 | 0 | 0.0 | 0.0 | 0.00 | 0.00 | 0.00 | 1008.4 | ||
| 20260506060405 | 0 | 0.0 | 0.0 | 0.00 | 0.00 | 0.00 | 1008.4 | ||
| 20260506050820 | 0 | 0.0 | 0.0 | 0.00 | 0.00 | 0.00 | 1008.3 | ||
| 20260506050335 | 0 | 0.0 | 0.0 | 0.00 | 0.00 | 0.00 | 1008.3 | ||
| 20260506044328 | 0 | 0.0 | 0.0 | 0.00 | 0.00 | 0.00 | 1008.2 | ||
| 20260506043822 | 0 | 0.0 | 0.0 | 0.00 | 0.00 | 0.00 | 1008.2 | ||
| 20260506043318 | 0 | 0.0 | 0.0 | 0.00 | 0.00 | 0.00 | 1008.1 | ||
| 20260506042323 | 50 | 330 | 6.0 | 15.0 | 0.00 | 0.00 | 0.00 | 85 | 1008.1 |
| 20260506041819 | 50 | 5 | 4.0 | 11.0 | 0.00 | 0.00 | 0.00 | 85 | 1008.1 |
| 20260506041321 | 50 | 60 | 3.0 | 13.0 | 0.00 | 0.00 | 0.00 | 85 | 1008.2 |
| 20260506040831 | 50 | 193 | 5.0 | 13.0 | 0.00 | 0.00 | 0.00 | 85 | 1008.2 |
| 20260506040346 | 50 | 21 | 5.0 | 11.0 | 0.00 | 0.00 | 0.00 | 85 | 1008.2 |
| 20260506035817 | 50 | 314 | 5.0 | 14.0 | 0.00 | 0.00 | 0.00 | 85 | 1008.2 |
| 20260506035334 | 50 | 311 | 4.0 | 11.0 | 0.00 | 0.00 | 0.00 | 85 | 1008.2 |
| 20260506034855 | 50 | 15 | 6.0 | 10.0 | 0.00 | 0.00 | 0.00 | 85 | 1008.2 |
| 20260506034326 | 50 | 13 | 4.0 | 9.0 | 0.00 | 0.00 | 0.00 | 85 | 1008.3 |
| 20260506033839 | 50 | 341 | 6.0 | 9.0 | 0.00 | 0.00 | 0.00 | 85 | 1008.3 |
| 20260506033332 | 50 | 42 | 4.0 | 13.0 | 0.00 | 0.00 | 0.00 | 85 | 1008.3 |
| 20260506032831 | 50 | 10 | 6.0 | 13.0 | 0.00 | 0.00 | 0.00 | 85 | 1008.3 |
| 20260506032319 | 50 | 63 | 5.0 | 13.0 | 0.00 | 0.00 | 0.00 | 85 | 1008.3 |
| 20260506031822 | 50 | 338 | 6.0 | 12.0 | 0.00 | 0.00 | 0.00 | 84 | 1008.3 |
| 20260506031318 | 50 | 56 | 6.0 | 12.0 | 0.00 | 0.00 | 0.00 | 84 | 1008.3 |
| 20260506030813 | 50 | 333 | 2.0 | 13.0 | 0.00 | 0.00 | 0.00 | 84 | 1008.4 |
| 20260506030329 | 50 | 1 | 7.0 | 13.0 | 0.00 | 0.00 | 0.00 | 84 | 1008.4 |
| 20260506025820 | 50 | 316 | 4.0 | 12.0 | 0.00 | 0.00 | 0.00 | 84 | 1008.4 |
| 20260506025333 | 50 | 5 | 6.0 | 11.0 | 0.00 | 0.00 | 0.00 | 84 | 1008.4 |
| 20260506024829 | 50 | 328 | 5.0 | 8.0 | 0.00 | 0.00 | 0.00 | 84 | 1008.4 |
| 20260506024325 | 50 | 15 | 3.0 | 10.0 | 0.00 | 0.00 | 0.00 | 84 | 1008.5 |
| 20260506023820 | 50 | 328 | 4.0 | 8.0 | 0.00 | 0.00 | 0.00 | 84 | 1008.5 |
| 20260506023314 | 50 | 342 | 4.0 | 11.0 | 0.00 | 0.00 | 0.00 | 84 | 1008.5 |
| 20260506022816 | 50 | 358 | 6.0 | 11.0 | 0.00 | 0.00 | 0.00 | 84 | 1008.6 |
| 20260506022319 | 50 | 69 | 4.0 | 12.0 | 0.00 | 0.00 | 0.00 | 84 | 1008.6 |
| 20260506021817 | 50 | 319 | 5.0 | 10.0 | 0.00 | 0.00 | 0.00 | 84 | 1008.6 |
| 20260506021340 | 50 | 356 | 4.0 | 9.0 | 0.00 | 0.00 | 0.00 | 84 | 1008.7 |
| 20260506020824 | 50 | 347 | 5.0 | 9.0 | 0.00 | 0.00 | 0.00 | 83 | 1008.6 |
| 20260506020319 | 50 | 356 | 6.0 | 10.0 | 0.00 | 0.00 | 0.00 | 83 | 1008.7 |
| 20260506015832 | 50 | 328 | 4.0 | 11.0 | 0.00 | 0.00 | 0.00 | 83 | 1008.7 |
| 20260506015324 | 50 | 321 | 5.0 | 11.0 | 0.00 | 0.00 | 0.00 | 83 | 1008.7 |
| 20260506014820 | 50 | 8 | 5.0 | 11.0 | 0.00 | 0.00 | 0.00 | 83 | 1008.8 |
| 20260506014314 | 50 | 341 | 5.0 | 11.0 | 0.00 | 0.00 | 0.00 | 83 | 1008.8 |
| 20260506013824 | 50 | 355 | 6.0 | 10.0 | 0.00 | 0.00 | 0.00 | 82 | 1008.8 |
| 20260506013326 | 50 | 30 | 5.0 | 10.0 | 0.00 | 0.00 | 0.00 | 82 | 1008.8 |
| 20260506012821 | 50 | 54 | 3.0 | 9.0 | 0.00 | 0.00 | 0.00 | 82 | 1008.8 |
| 20260506012334 | 50 | 352 | 5.0 | 9.0 | 0.00 | 0.00 | 0.00 | 82 | 1008.8 |
| 20260506011828 | 50 | 330 | 4.0 | 12.0 | 0.00 | 0.00 | 0.00 | 82 | 1008.8 |
| 20260506011331 | 50 | 345 | 7.0 | 12.0 | 0.00 | 0.00 | 0.00 | 82 | 1008.8 |
| 20260506010816 | 50 | 344 | 3.0 | 10.0 | 0.00 | 0.00 | 0.00 | 82 | 1008.8 |
| 20260506010338 | 50 | 117 | 6.0 | 12.0 | 0.00 | 0.00 | 0.00 | 82 | 1008.8 |
| 20260506005851 | 50 | 13 | 4.0 | 12.0 | 0.00 | 0.00 | 0.00 | 82 | 1008.9 |
| 20260506005334 | 50 | 321 | 5.0 | 11.0 | 0.00 | 0.00 | 0.00 | 82 | 1008.9 |
| 20260506004814 | 50 | 27 | 5.0 | 9.0 | 0.00 | 0.00 | 0.00 | 82 | 1008.9 |
| 20260506004335 | 50 | 27 | 4.0 | 12.0 | 0.00 | 0.00 | 0.00 | 82 | 1009.0 |
| 20260506003820 | 50 | 356 | 5.0 | 12.0 | 0.00 | 0.00 | 0.00 | 82 | 1009.0 |
| 20260506003316 | 50 | 314 | 3.0 | 10.0 | 0.00 | 0.00 | 0.00 | 82 | 1009.0 |
| 20260506002817 | 51 | 224 | 4.0 | 10.0 | 0.00 | 0.00 | 0.00 | 82 | 1009.1 |
| 20260506002331 | 51 | 333 | 4.0 | 13.0 | 0.00 | 0.00 | 0.00 | 82 | 1009.1 |
| 20260506001826 | 51 | 314 | 7.0 | 13.0 | 0.00 | 0.00 | 0.00 | 82 | 1009.2 |
| 20260506001320 | 51 | 347 | 5.0 | 12.0 | 0.00 | 0.00 | 0.00 | 82 | 1009.2 |
| 20260506000814 | 51 | 159 | 6.0 | 13.0 | 0.00 | 0.00 | 0.00 | 81 | 1009.2 |
| 20260506000337 | 51 | 33 | 6.0 | 13.0 | 0.00 | 0.00 | 0.00 | 81 | 1009.2 |
| 20260505235822 | 51 | 328 | 5.0 | 12.0 | 0.00 | 0.00 | 0.00 | 82 | 1009.2 |
| 20260505235316 | 51 | 341 | 6.0 | 13.0 | 0.00 | 0.00 | 0.00 | 82 | 1009.2 |
| 20260505234859 | 51 | 338 | 3.0 | 14.0 | 0.00 | 0.00 | 0.00 | 82 | 1009.2 |
| 20260505234313 | 51 | 16 | 9.0 | 15.0 | 0.00 | 0.00 | 0.00 | 82 | 1009.3 |
| 20260505233818 | 51 | 25 | 6.0 | 15.0 | 0.00 | 0.00 | 0.00 | 82 | 1009.3 |
| 20260505233321 | 51 | 46 | 4.0 | 11.0 | 0.00 | 0.00 | 0.00 | 82 | 1009.3 |
| 20260505232330 | 51 | 360 | 6.0 | 11.0 | 0.00 | 0.00 | 0.00 | 81 | 1009.3 |
| 20260505231833 | 51 | 48 | 4.0 | 11.0 | 0.00 | 0.00 | 0.00 | 81 | 1009.4 |
| 20260505231329 | 51 | 315 | 5.0 | 13.0 | 0.00 | 0.00 | 0.00 | 81 | 1009.4 |
| 20260505230843 | 52 | 27 | 4.0 | 12.0 | 0.00 | 0.00 | 0.00 | 81 | 1009.4 |
| 20260505230318 | 52 | 330 | 3.0 | 10.0 | 0.00 | 0.00 | 0.00 | 81 | 1009.4 |
| 20260505225812 | 52 | 300 | 4.0 | 12.0 | 0.00 | 0.00 | 0.00 | 81 | 1009.4 |
| 20260505225317 | 52 | 6 | 8.0 | 12.0 | 0.00 | 0.00 | 0.00 | 81 | 1009.5 |
| 20260505224819 | 52 | 49 | 6.0 | 12.0 | 0.00 | 0.00 | 0.00 | 81 | 1009.5 |
| 20260505224314 | 52 | 333 | 6.0 | 11.0 | 0.00 | 0.00 | 0.00 | 81 | 1009.5 |
| 20260505223822 | 52 | 61 | 5.0 | 11.0 | 0.00 | 0.00 | 0.00 | 81 | 1009.6 |
| 20260505223317 | 52 | 6 | 4.0 | 10.0 | 0.00 | 0.00 | 0.00 | 81 | 1009.6 |
| 20260505222818 | 52 | 53 | 4.0 | 10.0 | 0.00 | 0.00 | 0.00 | 81 | 1009.6 |
| 20260505222324 | 52 | 84 | 6.0 | 11.0 | 0.00 | 0.00 | 0.00 | 81 | 1009.6 |
| 20260505221826 | 52 | 13 | 6.0 | 11.0 | 0.00 | 0.00 | 0.00 | 81 | 1009.7 |
| 20260505221320 | 52 | 33 | 4.0 | 11.0 | 0.00 | 0.00 | 0.00 | 81 | 1009.7 |
| 20260505220814 | 52 | 356 | 7.0 | 11.0 | 0.00 | 0.00 | 0.00 | 81 | 1009.7 |
| 20260505220335 | 52 | 333 | 4.0 | 10.0 | 0.00 | 0.00 | 0.00 | 81 | 1009.7 |
| 20260505215818 | 52 | 25 | 5.0 | 11.0 | 0.00 | 0.00 | 0.00 | 81 | 1009.7 |
| 20260505215332 | 52 | 33 | 4.0 | 11.0 | 0.00 | 0.00 | 0.00 | 81 | 1009.7 |
| 20260505214824 | 52 | 40 | 7.0 | 13.0 | 0.00 | 0.00 | 0.00 | 81 | 1009.7 |
| 20260505214328 | 52 | 25 | 5.0 | 13.0 | 0.00 | 0.00 | 0.00 | 81 | 1009.7 |
| 20260505213856 | 52 | 34 | 7.0 | 13.0 | 0.00 | 0.00 | 0.00 | 81 | 1009.8 |
| 20260505213327 | 53 | 76 | 3.0 | 13.0 | 0.00 | 0.00 | 0.00 | 81 | 1009.7 |
| 20260505212849 | 53 | 30 | 6.0 | 13.0 | 0.00 | 0.00 | 0.00 | 81 | 1009.8 |
| 20260505212314 | 53 | 360 | 7.0 | 12.0 | 0.00 | 0.00 | 0.00 | 80 | 1009.8 |
| 20260505211815 | 53 | 275 | 5.0 | 14.0 | 0.00 | 0.00 | 0.00 | 80 | 1009.7 |
| 20260505211329 | 53 | 25 | 6.0 | 15.0 | 0.00 | 0.00 | 0.00 | 80 | 1009.8 |
| 20260505210821 | 53 | 51 | 4.0 | 15.0 | 0.00 | 0.00 | 0.00 | 80 | 1009.8 |
| 20260505210314 | 53 | 99 | 5.0 | 12.0 | 0.00 | 0.00 | 0.00 | 80 | 1009.7 |
| 20260505205824 | 53 | 30 | 5.0 | 13.0 | 0.00 | 0.00 | 0.00 | 80 | 1009.8 |
| 20260505205334 | 53 | 53 | 7.0 | 14.0 | 0.00 | 0.00 | 0.00 | 79 | 1009.8 |
| 20260505204851 | 54 | 84 | 7.0 | 14.0 | 0.00 | 0.00 | 0.00 | 79 | 1009.8 |
| 20260505204324 | 54 | 352 | 7.0 | 16.0 | 0.00 | 0.00 | 0.00 | 79 | 1009.8 |
| 20260505203816 | 54 | 72 | 5.0 | 16.0 | 0.00 | 0.00 | 0.00 | 79 | 1009.8 |
| 20260505203357 | 54 | 42 | 6.0 | 15.0 | 0.00 | 0.00 | 0.00 | 79 | 1009.7 |
| 20260505202826 | 54 | 53 | 5.0 | 16.0 | 0.00 | 0.00 | 0.00 | 79 | 1009.7 |
| 20260505202320 | 54 | 40 | 7.0 | 16.0 | 0.00 | 0.00 | 0.00 | 79 | 1009.7 |
| 20260505201841 | 54 | 35 | 7.0 | 18.0 | 0.00 | 0.00 | 0.00 | 78 | 1009.7 |
| 20260505200820 | 55 | 290 | 7.0 | 16.0 | 0.00 | 0.00 | 0.00 | 79 | 1009.5 |
| 20260505200313 | 55 | 360 | 5.0 | 13.0 | 0.00 | 0.00 | 0.00 | 80 | 1009.5 |
| 20260505195826 | 55 | 8 | 6.0 | 13.0 | 0.00 | 0.00 | 0.00 | 80 | 1009.5 |
| 20260505195314 | 55 | 339 | 2.0 | 8.0 | 0.00 | 0.00 | 0.00 | 80 | 1009.5 |
| 20260505194814 | 55 | 358 | 3.0 | 8.0 | 0.00 | 0.00 | 0.00 | 80 | 1009.5 |
| 20260505194358 | 55 | 309 | 4.0 | 8.0 | 0.00 | 0.00 | 0.00 | 80 | 1009.5 |
| 20260505193824 | 55 | 25 | 5.0 | 8.0 | 0.00 | 0.00 | 0.00 | 80 | 1009.4 |
| 20260505193324 | 55 | 67 | 4.0 | 8.0 | 0.00 | 0.00 | 0.00 | 80 | 1009.3 |
| 20260505192819 | 55 | 27 | 4.0 | 10.0 | 0.00 | 0.00 | 0.00 | 80 | 1009.3 |
| 20260505192332 | 55 | 30 | 3.0 | 12.0 | 0.00 | 0.00 | 0.00 | 80 | 1009.2 |
| 20260505191827 | 56 | 68 | 5.0 | 12.0 | 0.00 | 0.00 | 0.00 | 79 | 1009.1 |
| 20260505191349 | 56 | 6 | 4.0 | 10.0 | 0.00 | 0.00 | 0.00 | 80 | 1009.1 |
| 20260505190841 | 56 | 300 | 6.0 | 11.0 | 0.00 | 0.00 | 0.00 | 79 | 1009.0 |
| 20260505190313 | 56 | 341 | 4.0 | 11.0 | 0.00 | 0.00 | 0.00 | 80 | 1009.0 |
| 20260505185823 | 56 | 40 | 4.0 | 10.0 | 0.00 | 0.00 | 0.00 | 80 | 1009.0 |
| 20260505185315 | 56 | 34 | 4.0 | 10.0 | 0.00 | 0.00 | 0.00 | 80 | 1009.0 |
| 20260505184827 | 56 | 1 | 3.0 | 10.0 | 0.00 | 0.00 | 0.00 | 80 | 1009.0 |
| 20260505184329 | 56 | 34 | 5.0 | 13.0 | 0.00 | 0.00 | 0.00 | 79 | 1008.9 |
| 20260505183816 | 56 | 3 | 4.0 | 12.0 | 0.00 | 0.00 | 0.00 | 80 | 1008.9 |
| 20260505183338 | 56 | 48 | 7.0 | 12.0 | 0.00 | 0.00 | 0.00 | 80 | 1008.9 |
| 20260505182829 | 57 | 66 | 4.0 | 11.0 | 0.00 | 0.00 | 0.00 | 81 | 1008.9 |
| 20260505182322 | 57 | 69 | 4.0 | 11.0 | 0.00 | 0.00 | 0.00 | 81 | 1008.9 |
| 20260505181817 | 57 | 269 | 5.0 | 9.0 | 0.00 | 0.00 | 0.00 | 81 | 1008.9 |
| 20260505181320 | 57 | 6 | 4.0 | 9.0 | 0.00 | 0.00 | 0.00 | 81 | 1008.9 |
| 20260505180827 | 57 | 325 | 3.0 | 10.0 | 0.00 | 0.00 | 0.00 | 81 | 1008.9 |
| 20260505180349 | 57 | 356 | 5.0 | 10.0 | 0.00 | 0.00 | 0.00 | 81 | 1008.9 |
| 20260505175820 | 57 | 115 | 1.0 | 3.0 | 0.00 | 0.00 | 0.00 | 82 | 1008.9 |
| 20260505175324 | 57 | 61 | 0.0 | 1.0 | 0.00 | 0.00 | 0.00 | 83 | 1008.9 |